Flag Weather past 2 weeks in Denare Beach, Saskatchewan, Canada

Now
-13 °F

Clear.


Feels Like: -31 °F
Forecast: -18 / -4 °F
Wind: 9 mph from Northwest

Location: The Pas

Current Time: Nov 25, 2014 at 11:42:00 PM

Latest Report: Nov 25, 2014 at 11:00 PM


Visibility: 15 mi

Pressure: 30.42 "Hg

Humidity: 76%

Dew point: -18 °F

Location of Denare BeachLocation

Historic Weather in Denare Beach — Graph

°F

Denare Beach temperature yesterday

Maximum temperature yesterday: 10 °F (at 1:00 PM)
Minimum temperature yesterday: -13 °F (at 4:00 AM)
Average temperature yesterday: 1 °F

Past Weeks' High & Low Weather Summary

 TemperatureHumidityPressure
High27 °F (Nov 21, 11:00 AM)100% (Nov 11, 10:00 AM)30.75 "Hg (Nov 11, 10:00 AM)
Low-13 °F (Nov 24, 4:00 AM)52% (Nov 19, 2:00 PM)29.41 "Hg (Nov 21, 11:00 AM)
Average10 °F78%30.10 "Hg
* Reported Nov 10 10:00 PM — Nov 25 10:00 PM, Denare Beach, Weather by CustomWeather, © 2014

Note: Actual official high and low records may vary slightly from our data, if they occured in-between our weather recording intervals... More about our weather records

Advertising

Denare Beach weather history for previous 24 hours

 ConditionsComfort  
Time TempWeatherWind HumidityBarometerVisibility
10:00 PM
Nov 25
-11 °FClear.8 mph76%30.41 "Hg15 mi
9:00 PM-11 °FClear.9 mph84%30.39 "Hg15 mi
8:00 PM-11 °FClear.9 mph76%30.37 "Hg15 mi
7:00 PM-11 °FClear.6 mph76%30.36 "Hg15 mi
6:00 PM-9 °FClear.6 mph77%30.34 "Hg15 mi
5:00 PM-8 °FPassing clouds.8 mph70%30.32 "Hg15 mi
4:00 PM-6 °FSunny.9 mph64%30.30 "Hg15 mi
3:00 PM-6 °FSunny.6 mph70%30.27 "Hg15 mi
2:00 PM-6 °FPassing clouds.7 mph64%30.25 "Hg15 mi
1:00 PM-8 °FSunny.6 mph64%30.24 "Hg15 mi
12:00 PM-9 °FPassing clouds.7 mph64%30.24 "Hg15 mi
11:00 AM-11 °FPassing clouds.8 mph76%30.22 "Hg15 mi
10:00 AM-11 °FPassing clouds.6 mph76%30.20 "Hg15 mi
9:00 AM-11 °FPassing clouds.8 mph76%30.17 "Hg15 mi
8:00 AM-11 °FIce fog.3 mph84%30.15 "Hg6 mi
7:00 AM-9 °FClear.3 mph77%30.12 "Hg15 mi
6:00 AM-8 °FClear.3 mph77%30.10 "Hg15 mi
5:00 AM-8 °FClear.3 mph84%30.10 "Hg15 mi
4:00 AM-6 °FClear.8 mph77%30.09 "Hg15 mi
3:00 AM-4 °FClear.3 mph77%30.08 "Hg15 mi
2:00 AM-4 °FClear.7 mph84%30.06 "Hg15 mi
1:00 AM0 °FClear.10 mph78%30.06 "Hg15 mi
12:00 AM1 °FClear.9 mph78%30.05 "Hg15 mi
11:00 PM
Nov 24
3 °FClear.9 mph85%30.03 "Hg15 mi
Weather by CustomWeather, © 2014

See weather overviewHow to use our weather pages